Hourly Data Report for June 08, 2012

All times are specified in Local Standard Time (LST). Add 1 hour to adjust for Daylight Saving Time where and when it is observed.

SAINT JOHN A
NEW BRUNSWICK

45°18'58.000" N
65°53'24.000" W
108.80 m
8104901
71609
YSJ

Download Data

Hourly Data (June 2012)
Hourly Data Report for June 8, 2012
Temp Definition
°C
Dew Point Temp Definition
°C
Rel Hum Definition
%
Wind Dir Definition
10's deg

Wind Spd Definition
km/h
Visibility Definition
km
Stn Press Definition
kPa
Hmdx Definition


Wind Chill Definition


Weather Definition


TIME
00:00 Legend Double Dagger 6.0 5.4 96 21 5 10.0 99.84     LegendNANA
01:00 Legend Double Dagger 10.8 8.4 85 26 10 10.0 99.82     LegendNANA
02:00 Legend Double Dagger 5.6 4.7 94   0 10.0 99.80     Mainly Clear
03:00 Legend Double Dagger 4.8 4.5 98   0 10.0 99.78     LegendNANA
04:00 Legend Double Dagger 4.0 3.7 98   0 10.0 99.76     LegendNANA
05:00 Legend Double Dagger 7.7 7.3 97 23 7 10.0 99.77     Mainly Clear
06:00 Legend Double Dagger 11.7 9.6 87   0 10.0 99.79     LegendNANA
07:00 Legend Double Dagger 14.9 10.0 72 27 10 10.0 99.78     LegendNANA
08:00 Legend Double Dagger 17.1 10.5 65 27 13 10.0 99.79     Mostly Cloudy
09:00 Legend Double Dagger 18.8 9.9 56 25 13 10.0 99.79     LegendNANA
10:00 Legend Double Dagger 19.8 8.6 48 26 15 10.0 99.78     LegendNANA
11:00 Legend Double Dagger 19.5 10.1 54 20 24 10.0 99.77     Mainly Clear
12:00 Legend Double Dagger 17.7 10.4 62 19 26 10.0 99.76     LegendNANA
13:00 Legend Double Dagger 18.7 9.3 54 21 27 10.0 99.76     LegendNANA
14:00 Legend Double Dagger 18.1 8.8 54 21 30 10.0 99.71     Mainly Clear
15:00 Legend Double Dagger 13.7 9.0 73 19 22 10.0 99.68     LegendNANA
16:00 Legend Double Dagger 12.6 8.9 78 21 33 10.0 99.64     LegendNANA
17:00 Legend Double Dagger 10.7 9.1 90 23 20 6.4 99.70     Fog
18:00 Legend Double Dagger 10.2 9.4 95 21 20 2.4 99.68     Fog
19:00 Legend Double Dagger 9.6 9.3 98 21 17 0.8 99.68     Fog
20:00 Legend Double Dagger 9.4 9.4 100 21 14 0.8 99.64     Rain,Fog
21:00 Legend Double Dagger 9.0 9.0 100 19 23 0.8 99.59     Fog
22:00 Legend Double Dagger 9.0 9.0 100 20 21 1.0 99.60     Fog
23:00 Legend Double Dagger 9.0 9.0 100 20 22 0.8 99.62     Fog

Notes on Data Quality.

Legend

  • E = Estimated
  • M = Missing
  • NA = Not Available
  • ‡ = Partner data that is not subject to review by the National Climate Archives
Date modified: